Location: Arrodets-la-Barthe
(43.0306°N, 0.2829°E)
Time: 12:53:05
(UTC+00:00)

Cosmos 2278 - Visible Passes

Search period start: 29 May 2022 00:00
Search period end: 08 June 2022 00:00
Orbit: 839 x 853 km, 71.1° (Epoch: 28 May)

Date Brightness Start Highest point End Pass type
(mag) Time Alt. Az. Time Alt. Az. Time Alt. Az.
29 May 3.9 20:49:33 10° SSW 20:55:12 78° WNW 21:00:55 10° NNE visible
29 May 6.5 22:37:14 10° WNW 22:40:20 15° NW 22:43:27 10° N visible
30 May 3.9 20:35:49 10° SSW 20:41:28 80° WNW 20:47:12 10° NNE visible
30 May 6.6 22:23:23 10° W 22:26:35 15° NW 22:29:47 10° N visible
31 May 7.2 03:47:40 10° NNE 03:49:35 12° NE 03:51:30 10° ENE visible
31 May 3.9 20:22:05 10° SSW 20:27:45 82° WNW 20:33:28 10° NNE visible
31 May 6.6 22:09:33 10° W 22:12:49 15° NW 22:16:07 10° N visible
01 Jun 7.3 03:34:05 10° NNE 03:35:50 11° NE 03:37:35 10° ENE visible
01 Jun 3.8 20:08:22 10° SSW 20:14:01 84° WNW 20:19:45 10° NNE visible
01 Jun 6.6 21:55:43 10° W 21:59:04 16° NW 22:02:27 10° N visible
02 Jun 7.3 03:20:30 10° NNE 03:22:04 11° NE 03:23:38 10° NE visible
02 Jun 6.7 21:41:53 10° W 21:45:19 16° NW 21:48:47 10° N visible
03 Jun 7.4 03:06:57 10° NNE 03:08:18 11° NE 03:09:40 10° NE visible
03 Jun 6.7 21:28:03 10° W 21:31:34 16° NW 21:35:07 10° N visible
04 Jun 7.5 02:53:27 10° NNE 02:54:33 10° NE 02:55:39 10° NE visible
04 Jun 6.7 21:14:14 10° W 21:17:49 17° NW 21:21:27 10° N visible
05 Jun 7.5 02:40:01 10° NNE 02:40:48 10° NE 02:41:35 10° NE visible
05 Jun 6.8 21:00:24 10° W 21:04:04 17° NW 21:07:47 10° N visible
06 Jun 7.5 02:27:00 10° NE 02:27:02 10° NE 02:27:05 10° NE visible
06 Jun 6.8 20:46:35 10° W 20:50:20 18° NW 20:54:06 10° N visible
07 Jun 6.9 20:32:46 10° W 20:36:35 18° NW 20:40:25 10° N visible
